ニート彗星

P/2001 Q6 ( NEAT )

English version
Home page
Updated on March 12, 2002

---------------------------------------------------------------------

・ プロフィール

発見日 2001年8月28日
発見光度 17.6等
発見者 Near-Earth-Asteroid Tracking Team (Jet Propulsion Laboratory)

・ 軌道要素

Epoch 2001 Nov. 27.0 TT = JDT 2452240.5
T 2001 Nov.  9.46706 TT                                 MPC
q   1.4081735            (2000.0)            P               Q
n   0.04361319     Peri.   43.33018     +0.53242764     -0.78548649
a   7.9932640      Node    22.13540     +0.34178713     -0.14148065
e   0.8238300      Incl.   56.85465     +0.77440452     +0.60249000
P  22.60

・ 星図

・ 光度変化

        m1 = 14.0 + 5 logΔ +  10.0 log r  [   ,-50]  (              〜2001年 9月20日)
        m1 = -5.0 + 5 logΔ + 110   log r  [-50,  0]  (2001年 9月20日〜2001年11月 9日)
        m1 =  6.8 + 5 logΔ +  30.0 log r  [  0,   ]  (2001年11月 9日〜              )

---------------------------------------------------------------------

軌道要素は Dr. Brian G. Marsden の計算によるもので、 M.P.E.C. 2001-X72 に掲載されたものです。
星図は StellaNavigator Ver.2.0 for Windows (アストロアーツ 編著 / アスキー出版局刊) で作成したものです。
光度グラフはComet for Windowsで作成したものです。

---------------------------------------------------------------------

Copyright(C) Seiichi Yoshida (comet@aerith.net). All rights reserved.